This is the latest recevied weather packets stored in our database for station/object OK1KZE-6. If no packets are shown the sender has not sent any weather packets the latest 10 day(s).
| Time | Temp. | Humidity | Pressure | Rain* | Wind** | Luminosity | Snow |
|---|---|---|---|---|---|---|---|
| 1777837507 | 20° C | 40% | 1015 hPa | - | - | - | - |
| 1777836907 | 20° C | 40% | 1014.8 hPa | - | - | - | - |
| 1777836607 | 20° C | 40% | 1015 hPa | - | - | - | - |
| 1777836308 | 20° C | 39% | 1015 hPa | - | - | - | - |
| 1777836007 | 20° C | 39% | 1015.1 hPa | - | - | - | - |
| 1777835708 | 20° C | 38% | 1014.8 hPa | - | - | - | - |
| 1777835407 | 20° C | 38% | 1014.9 hPa | - | - | - | - |
| 1777835108 | 20.56° C | 37% | 1014.7 hPa | - | - | - | - |
| 1777834808 | 20.56° C | 37% | 1014.7 hPa | - | - | - | - |
| 1777834508 | 20.56° C | 37% | 1014.8 hPa | - | - | - | - |
| 1777834208 | 20.56° C | 37% | 1014.8 hPa | - | - | - | - |
| 1777833908 | 20.56° C | 36% | 1014.6 hPa | - | - | - | - |
| 1777833609 | 20.56° C | 36% | 1014.5 hPa | - | - | - | - |
| 1777833308 | 21.11° C | 36% | 1014.6 hPa | - | - | - | - |
| 1777833009 | 20.56° C | 36% | 1014.6 hPa | - | - | - | - |
| 1777832708 | 21.11° C | 35% | 1014.6 hPa | - | - | - | - |
| 1777832407 | 21.11° C | 35% | 1014.7 hPa | - | - | - | - |
| 1777832108 | 21.67° C | 34% | 1014.7 hPa | - | - | - | - |
| 1777831809 | 21.67° C | 33% | 1014.6 hPa | - | - | - | - |
| 1777831508 | 21.67° C | 33% | 1014.7 hPa | - | - | - | - |
| 1777830908 | 22.22° C | 32% | 1014.5 hPa | - | - | - | - |
| 1777830608 | 22.22° C | 33% | 1014.9 hPa | - | - | - | - |
| 1777830308 | 22.22° C | 32% | 1014.9 hPa | - | - | - | - |
| 1777830008 | 22.22° C | 32% | 1014.8 hPa | - | - | - | - |
| 1777829708 | 22.78° C | 31% | 1014.5 hPa | - | - | - | - |
* Rain since midnight (hover to see other rain measurements)
** Current wind speed in m/s (hover to see current wind gust speed)